KB7DZR Weather Reports


time (UTC)temp
F
wind
direction
speed
knots
gust
knots
rain 1hr
in
rain 24hr
in
rain mn
in
humidity
%
barometer
mb
20260503053507 46 302 0.0 0.0 0.00 0.00 0.00 69 1018.1
20260503052508 45 302 0.0 0.0 0.00 0.00 0.00 68 1018.1
20260503052008 46 302 0.0 0.0 0.00 0.00 0.00 68 1018.0
20260503051508 46 302 0.0 0.0 0.00 0.00 0.00 68 1018.0
20260503043508 47 302 0.0 0.0 0.00 0.00 0.00 65 1017.9
20260503042506 47 302 0.0 0.0 0.00 0.00 0.00 66 1017.8
20260503035506 51 302 0.0 0.0 0.00 0.00 0.00 60 1017.6
20260503035007 51 302 0.0 0.9 0.00 0.00 0.00 59 1017.5
20260503034507 51 302 0.0 0.9 0.00 0.00 0.00 57 1017.4
20260503033006 53 302 0.0 0.0 0.00 0.00 0.00 55 1017.2
20260503032007 53 302 0.0 0.9 0.00 0.00 0.00 54 1017.1
20260503031508 54 306 0.0 0.9 0.00 0.00 0.00 54 1017.0
20260503031007 55 311 0.0 0.9 0.00 0.00 0.00 54 1016.9
20260503030006 57 312 0.0 0.9 0.00 0.00 0.00 50 1016.9
20260503025008 59 312 0.0 0.0 0.00 0.00 0.00 47 1016.9
20260503023006 62 312 0.0 0.0 0.00 0.00 0.00 48 1017.0
20260503015005 65 312 0.0 0.0 0.00 0.00 0.00 48 1017.0
20260503013006 67 309 4.3 6.1 0.00 0.00 0.00 33 1016.8
20260503012006 67 295 0.0 0.0 0.00 0.00 0.00 33 1016.8
20260503011506 68 294 0.0 0.9 0.00 0.00 0.00 34 1016.9
20260503011006 68 295 0.0 0.9 0.00 0.00 0.00 35 1016.7
20260503010507 69 294 0.0 2.6 0.00 0.00 0.00 35 1016.8
20260503005005 69 294 2.6 7.0 0.00 0.00 0.00 34 1016.7
20260503004505 68 294 5.2 7.0 0.00 0.00 0.00 34 1016.7
20260503002506 70 312 8.7 13.0 0.00 0.00 0.00 31 1016.5
20260503002006 71 313 0.0 6.1 0.00 0.00 0.00 28 1016.5
20260503001505 71 313 6.1 10.4 0.00 0.00 0.00 27 1016.5
20260503001006 71 313 4.3 7.8 0.00 0.00 0.00 27 1016.4
20260502235505 72 310 6.1 10.4 0.00 0.00 0.00 27 1016.4
20260502235006 71 314 7.0 11.3 0.00 0.00 0.00 27 1016.4
20260502234505 71 315 6.1 10.4 0.00 0.00 0.00 28 1016.4
20260502234006 71 319 6.1 11.3 0.00 0.00 0.00 29 1016.5
20260502232507 72 324 4.3 7.8 0.00 0.00 0.00 27 1016.6
20260502232005 72 324 5.2 10.4 0.00 0.00 0.00 26 1016.6
20260502230007 72 325 0.9 6.1 0.00 0.00 0.00 28 1016.6
20260502225007 72 324 5.2 8.7 0.00 0.00 0.00 27 1016.7
20260502223505 72 79 0.0 1.7 0.00 0.00 0.00 27 1016.7
20260502223005 72 78 0.0 5.2 0.00 0.00 0.00 26 1016.8
20260502222005 72 78 2.6 6.1 0.00 0.00 0.00 24 1016.9
20260502220007 72 83 0.0 0.0 0.00 0.00 0.00 25 1017.1
20260502215505 72 83 0.0 0.0 0.00 0.00 0.00 26 1017.1
20260502214007 73 84 0.9 6.1 0.00 0.00 0.00 23 1017.1
20260502213507 74 87 0.9 2.6 0.00 0.00 0.00 23 1017.2
20260502213009 74 87 0.9 4.3 0.00 0.00 0.00 22 1017.2
20260502211506 74 89 0.0 1.7 0.00 0.00 0.00 22 1017.3
20260502211008 73 89 0.9 2.6 0.00 0.00 0.00 26 1017.4
20260502205007 73 89 0.0 2.6 0.00 0.00 0.00 22 1017.5
20260502204506 73 91 1.7 5.2 0.00 0.00 0.00 21 1017.4
20260502204006 73 94 1.7 5.2 0.00 0.00 0.00 21 1017.5
20260502203006 73 100 0.0 2.6 0.00 0.00 0.00 21 1017.5
20260502202507 73 99 0.0 2.6 0.00 0.00 0.00 21 1017.5
20260502202006 73 100 0.9 2.6 0.00 0.00 0.00 23 1017.5
20260502201007 72 100 0.0 0.9 0.00 0.00 0.00 25 1017.6
20260502200508 72 99 0.0 6.1 0.00 0.00 0.00 23 1017.6
20260502194506 72 129 0.0 2.6 0.00 0.00 0.00 24 1017.7
20260502193006 71 144 0.0 0.0 0.00 0.00 0.00 24 1017.9
20260502192507 71 145 0.0 0.0 0.00 0.00 0.00 24 1018.0
20260502191506 71 145 0.0 0.0 0.00 0.00 0.00 25 1018.1
20260502190507 70 145 0.0 0.0 0.00 0.00 0.00 26 1018.1
20260502190006 70 145 0.0 0.0 0.00 0.00 0.00 26 1018.2
20260502184507 69 145 0.0 0.0 0.00 0.00 0.00 27 1018.2
20260502182007 68 145 0.0 0.0 0.00 0.00 0.00 30 1018.5
20260502180506 67 145 0.0 0.0 0.00 0.00 0.00 32 1018.6
20260502161506 58 145 0.0 0.0 0.00 0.00 0.00 51 1018.9
20260502160507 57 145 0.0 0.0 0.00 0.00 0.00 54 1018.9
20260502152006 50 145 0.0 0.0 0.00 0.00 0.00 67 1019.1
20260502151505 50 145 0.0 0.0 0.00 0.00 0.00 68 1019.0
20260502150507 48 145 0.0 0.0 0.00 0.00 0.00 67 1019.1
20260502130507 39 145 0.0 0.0 0.00 0.00 0.00 73 1018.7
20260502122507 38 145 0.0 0.0 0.00 0.00 0.00 74 1018.6
20260502122006 38 145 0.0 0.0 0.00 0.00 0.00 74 1018.6
20260502121507 38 145 0.0 0.0 0.00 0.00 0.00 73 1018.7
20260502115507 38 145 0.0 0.0 0.00 0.00 0.00 73 1018.8
20260502114506 38 145 0.0 0.0 0.00 0.00 0.00 73 1018.8
20260502113506 38 145 0.0 0.0 0.00 0.00 0.00 73 1018.8
20260502113007 38 145 0.0 0.0 0.00 0.00 0.00 73 1018.8
20260502111506 38 145 0.0 0.0 0.00 0.00 0.00 72 1018.9
20260502110507 38 145 0.0 0.0 0.00 0.00 0.00 71 1019.0
20260502105006 39 145 0.0 0.0 0.00 0.00 0.00 70 1019.1
20260502104007 39 145 0.0 0.0 0.00 0.00 0.00 68 1019.1
20260502103506 39 145 0.0 0.0 0.00 0.00 0.00 68 1019.0
20260502103006 39 145 0.0 0.0 0.00 0.00 0.00 68 1019.0
20260502102506 39 145 0.0 0.0 0.00 0.00 0.00 68 1019.0
20260502101006 39 145 0.0 0.0 0.00 0.00 0.00 68 1019.0
20260502100506 39 145 0.0 0.0 0.00 0.00 0.00 68 1019.0
20260502091506 40 145 0.0 0.0 0.00 0.00 0.00 64 1018.9
20260502091007 40 145 0.0 0.0 0.00 0.00 0.00 64 1018.9
20260502090507 41 145 0.0 0.0 0.00 0.00 0.00 64 1019.0
20260502071505 42 145 0.0 0.0 0.00 0.00 0.00 60 1019.0
20260502071005 42 145 0.0 0.0 0.00 0.00 0.00 60 1019.0